Overview Statistics Trail Chart Weather Telemetry Raw packets
 

This is the latest recevied weather packets stored in our database for station/object N5JXS. If no packets are shown the sender has not sent any weather packets the latest 10 day(s).

<< 2 3 4 5 6 7 8 >>
Time Temp. Humidity Pressure Rain* Wind** Luminosity Snow
1788609657 16.11° C 62% 1025.2 hPa 0 mm - 0 W/m² -
1788609356 15.56° C 66% 1025 hPa 0 mm - 0 W/m² -
1788609051 15° C 69% 1024.8 hPa 0 mm - 0 W/m² -
1788608450 14.44° C 75% 1025 hPa 0 mm - 0 W/m² -
1788608144 13.89° C 77% 1025.1 hPa 0 mm - 0 W/m² -
1788607840 13.89° C 78% 1025.3 hPa 0 mm - 0 W/m² -
1788607535 13.89° C 78% 1025 hPa 0 mm - 0 W/m² -
1788607231 13.89° C 78% 1025.2 hPa 0 mm - 0 W/m² -
1788606925 13.89° C 78% 1024.8 hPa 0 mm - 0 W/m² -
1788606624 13.89° C 80% 1025.2 hPa 0 mm - 0 W/m² -
1788606324 13.89° C 80% 1025.2 hPa 0 mm - 0 W/m² -
1788606019 13.89° C 80% 1025 hPa 0 mm - 0 W/m² -
1788605714 13.89° C 80% 1025.1 hPa 0 mm - 0 W/m² -
1788605413 13.89° C 80% 1025.2 hPa 0 mm - 0 W/m² -
1788605109 13.89° C 80% 1025.2 hPa 0 mm - 0 W/m² -
1788604808 13.89° C 80% 1025.3 hPa 0 mm - 0 W/m² -
1788604504 13.89° C 80% 1025.6 hPa 0 mm - 0 W/m² -
1788604200 13.89° C 79% 1025.3 hPa 0 mm - 0 W/m² -
1788603895 14.44° C 79% 1025.1 hPa 0 mm - 0 W/m² -
1788603591 14.44° C 78% 1025.5 hPa 0 mm - 0 W/m² -
1788603290 14.44° C 77% 1025.6 hPa 0 mm - 0 W/m² -
1788602989 14.44° C 78% 1025.3 hPa 0 mm - 0 W/m² -
1788602685 15° C 77% 1025.3 hPa 0 mm - 0 W/m² -
1788602383 15° C 76% 1025.5 hPa 0 mm - 0 W/m² -
1788602078 15° C 76% 1025.7 hPa 0 mm - 0 W/m² -

* Rain latest hour (hover to see other rain measurements)
** Current wind speed in m/s (hover to see current wind gust speed)